Location: Pianadetto
(44.4000°N, 10.1000°E)
Time: 02:05:51
(UTC+00:00)

SL-16 R/B - Pass Details

Date: 26 May 2022
Orbit: 839 x 850 km, 71.0° (Epoch: 26 June)

Event Time Altitude Azimuth Distance (km) Brightness Sun altitude
Exits shadow 01:58:13 21° 236° (SW) 1,814 3.3 -14.8°
Maximum altitude 02:01:47 48° 301° (WNW) 1,094 2.7 -14.4°
Drops below altitude 10° 02:07:16 10° 16° (NNE) 2,476 5.7 -13.8°
Sets 02:09:50 0° 22° (NNE) 3,417 6.8 -13.5°
